NOAA 16 DEB, 41221

Orbit data source: Space-Track

NOAA 16 DEB, 41221 is space debris in SSO originally from a launch on Thu, 21 Sep 2000 UTC launched from the Air Force Western Test Range (AFWTR). Debris objects in space refer to the collection of defunct objects orbiting the Earth. Examples of debris include non-operational satellites, rocket bodies, and fragments generated from explosions, collisions, or faulty payload assembly.

Loading next visibility...
Identifier
41221, 2000-055EA
Orbit
SSO
Country
Flag of USUS
Related business
Manufacturer
Unknown
Mission
Spacecraft
Bus & Motor
Unknown
Mass
Unknown
Launch date (UTC)
2000-09-21 (25 years ago)
Launch vehicle
Unknown
Launch site
Air Force Western Test Range (AFWTR)
Object type
Payload
Rocket body
Debris
Shape & HBR
Unknown shape, 0.1 m
Radar Cross Section
Small (<0.1 m²)

Expand to show TLE details & history
Last TLE update: 1 day ago

TLE from 1 day ago
0 NOAA 16 DEB
1 41221U 00055EA  25306.37096132  .00005588  00000-0  14443-2 0  9991
2 41221  99.0082 169.7778 0042762  25.4521 334.8764 14.49807422516441
Epoch: 2025-11-02T08:54Z
TLE epoch observation values (Epoch: 2025-11-02T08:54:11.058Z)
Latitude
-0.00002°
Longitude
-5.65592°
Altitude
701.735 km
Speed
7.52 km/s
True Right ascension
11h 19m 06s
True Declination
0° 00' 00"
Sunlit
Object was in daylight at epoch
Visualization orbit readout
Latitude
Unknown
Longitude
Unknown
Altitude
Unknown
Speed
Unknown
Apparent Right ascension
Unknown
Apparent Declination
Unknown
Sunlit
N/A
Visualization observer readout
Local Sidereal Time
07:40:20
Azimuth
Unknown
Elevation
Unknown
Doppler factor
Unknown
Orbital elements
Apogee altitude
753.779 km
Perigee altitude
693.043 km
Semi-major axis
7,101.548 km
Eccentricity
0.00428
Inclination
99.0082°
RAAN
169.7778°
Arg. of periapsis
25.4521°
True anomaly
334.66734°
Mean anomaly
334.8764°
Eccentric anomaly
334.77197°
Mean motion
3.62672 °/min
Orbital period
99.26 mins
BSTAR
0.0014443
Loading maneuver chart data...
Computing Atmospheric mass density...
Loading historical data...
Loading historical data...
Loading historical data...
Loading historical data...
Loading historical data...
Loading historical data...
Loading historical data...

Documentation

Showing up to 5 results
|